www.pogodaiklimat.ru

Погода и климат >> Архив погоды >> Россия >> Архангельская область >> Каргополь


АРХИВ ПОГОДЫ в Каргополе

Время (UTC), дата Ветер
(напр.,м/с)
 
Видим.   Явления Облачность Т
(С)
Тd
(С)
f
(%)
Тe
(С)
Тes
(С)
Комфортность P
(гПа)
Po
(гПа)
Тmin
(С)
Tmax
(С)
R
(мм)
R24
(мм)
S
(см)
15 13.08 ЮВ 2 20 км {ливн. осадки} 10/10 540 м
[Cb cap]
+13.6 +11.5 87 +13 +13 1010.3 995.3 +16.1 2
18 13.08 Ю 3 20 км {ливн. осадки} 10/10 540 м
[Cb cap]
+14.4 +12.9 91 +13 +13 1009.0 994.1
21 13.08 Ю 3 20 км 10/10 270 м
[Cb cap]
+15.1 +14.2 94 +14 +14 1008.2 993.3
00 14.08 Ю 2 20 км 10/10 210 м
[Cb cap]
+14.6 +13.9 96 +14 +14 1007.6 992.7
03 14.08 ЮЗ 2 2000 м морось 10/10 90 м
[St]
+14.2 +14.1 99 +14 +14 1007.8 992.9 +13.6 0.0
06 14.08 Ю 2 20 км {морось} 10/10 90 м
[St]
+15.5 +15.0 97 +15 +15 1007.9 993.1
09 14.08 ЮЗ 3 20 км 8/8 1000 м
[Sc]
+19.6 +14.6 73 +22 +23 комфорт 1008.0 993.4
12 14.08 ЮЗ 2 20 км 6/6 1000 м
[Sc diur, vesp]
+20.0 +13.5 66 +23 +25 комфорт 1008.6 994.0
15 14.08 СЗ 3 10 км слаб. ливневой дождь 9/9 800 м
[Cb cap]
+16.9 +14.1 84 +17 +17 1009.5 994.8 +22.5 0.6
18 14.08 Ю 1 20 км {ливн. осадки} 10/3 1000 м
[Sc diur, vesp Ac trans Cs]
+14.3 +13.4 94 +15 +15 1010.2 995.3
21 14.08 Ю 1 20 км 10/0
[Cs]
+12.4 +12.2 99 +12 +12 1010.0 995.0
00 15.08 Ю 1 20 км 9/0
[Ac trans Cs]
+12.5 +12.3 99 +12 +12 1009.4 994.4
03 15.08 Ю 1 4000 м дымка 10/0 2000 м
[Ac As]
+12.3 +12.3 100 +12 +12 1008.5 993.5 +11.2 0.5
06 15.08 ЮВ 2 10 км слаб. дождь 10/8 90 м
[Frnb As op]
+13.7 +13.4 98 +13 +13 1007.7 992.8
09 15.08 Ю 2 10 км слаб. ливневой дождь 10/10 240 м
[Cb cap]
+14.5 +13.9 96 +14 +14 1005.0 990.2
12 15.08 ЮЗ 3 10 км слаб. ливневой дождь 10/10 800 м
[Cb cap]
+14.3 +12.7 90 +13 +13 1004.4 989.6
15 15.08 З 3 20 км {ливн. осадки} 6/3 600 м
[Cb cap Ac cuf Ci sp]
+14.9 +11.8 82 +14 +15 1006.9 992.0 +15.1 10
18 15.08 ЮЗ 2 20 км {ливн. осадки} 6/6 1000 м
[Sc diur, vesp]
+12.4 +11.0 91 +11 +11 1008.6 993.6
21 15.08 ЮЗ 3 20 км ясно +11.9 +10.3 90 +10 +10 1009.7 994.7
00 16.08 ЮЗ 2 20 км ясно +10.7 +9.7 94 +9 +9 1010.7 995.6
03 16.08 ЮЗ 2 20 км ясно +10.6 +10.0 96 +9 +10 1011.8 996.7 +9.5
06 16.08 ЮЗ 4 20 км 8/5 1000 м
[Sc diur, vesp Ac trans]
+14.5 +11.7 83 +13 +14 1012.6 997.6
09 16.08 ЮЗ 4 20 км 8/8 1000 м
[Sc]
+17.8 +10.2 61 +18 +19 1013.1 998.3
12 16.08 З 2 20 км 9/9 1000 м
[Sc]
+17.6 +9.8 60 +18 +19 1014.0 999.1
15 16.08 З 1 20 км 8/8 1000 м
[Sc]
+17.5 +10.3 63 +19 +19 1014.4 999.5 +19.2
18 16.08 ЮЗ 1 20 км 4/4 1000 м
[Sc]
+13.6 +10.6 82 +14 +14 1015.7 1000.7
21 16.08 Ю 1 20 км 6/6 1000 м
[Sc]
+10.1 +9.5 96 +10 +10 1017.0 1001.8
00 17.08 Ю 1 20 км 9/9 1000 м
[Sc]
+10.9 +9.4 90 +11 +11 1018.0 1002.7
03 17.08 Ю 1 20 км 9/9 1000 м
[Sc]
+11.6 +9.6 88 +11 +11 1018.8 1003.6 +9.5
06 17.08 ЮЗ 2 20 км 9/0
[Ac trans]
+15.8 +10.6 71 +16 +18 1019.4 1004.4
09 17.08 З 2 20 км 8/3 1000 м
[Cu med, cong Ac trans]
+20.5 +9.7 50 +23 +26 комфорт 1019.5 1004.7
12 17.08 ЮЗ 1 20 км 8/4 600 м
[Sc diur, vesp Ac trans]
+21.0 +10.2 50 +24 +27 комфорт 1019.5 1004.8
15 17.08 Ю 1 20 км 4/0 2000 м
[Ac trans]
+20.2 +8.5 47 +22 +24 комфорт 1019.3 1004.6 +21.5
18 17.08 штиль 0 20 км 1/0
[Ac lent]
+13.0 +11.3 89 +12 +12 1020.3 1005.2
21 17.08 штиль 0 20 км ясно +9.1 +8.6 97 +8 +8 1020.5 1005.1
00 18.08 С 1 20 км ясно +7.4 +6.9 97 +6 +6 1021.1 1005.6
03 18.08 С 1 20 км 1/0 2000 м
[Ci fib]
+8.1 +7.7 97 +7 +8 1020.9 1005.5 +7.0
06 18.08 В 2 20 км 3/0
[Ci fib]
+18.0 +11.6 66 +19 +23 1020.0 1005.1
09 18.08 В 2 20 км 8/5 1000 м
[Cu med, cong Ci fib]
+21.1 +9.0 46 +22 +26 комфорт 1018.4 1003.7
12 18.08 ЮВ 2 20 км 9/3 1000 м
[Cu hum Ci fib]
+22.5 +7.8 39 +24 +27 комфорт 1017.4 1002.8
15 18.08 В 2 20 км 10/5 1000 м
[Sc diur, vesp Ci fib]
+21.9 +9.7 46 +23 +24 комфорт 1016.8 1002.2 +22.8
18 18.08 В 1 20 км 10/0
[Ac As Ci fib]
+16.6 +10.9 69 +17 +17 1017.0 1002.1
21 18.08 В 1 20 км 10/0
[Ac As]
+15.9 +11.5 75 +17 +17 1016.0 1001.1
00 19.08 В 1 20 км 10/8 300 м
[Frnb As op]
+14.8 +12.8 88 +15 +15 1015.7 1000.7
03 19.08 В 1 4000 м слаб. морось 10/10 150 м
[St]
+14.1 +13.5 96 +14 +14 1015.1 1000.1 +14.1 0.0
06 19.08 ЮВ 1 20 км {морось} 10/10 150 м
[St]
+15.1 +14.2 94 +16 +16 1014.6 999.7 +14.1
09 19.08 Ю 2 20 км 10/10 240 м
[St]
+16.9 +15.2 90 +17 +17 1014.7 999.9
12 19.08 ЮЗ 2 20 км {дождь} 9/9 420 м
[Sc]
+18.9 +16.1 84 +21 +21 комфорт 1014.9 1000.2
15 19.08 ЮВ 1 20 км 9/9 1000 м
[Sc]
+18.5 +16.1 86 +20 +20 1015.2 1000.4 +19.9 0.0
18 19.08 Ю 1 20 км 10/10 1000 м
[Sc]
+17.5 +16.5 94 +19 +19 1015.7 1000.9
21 19.08 Ю 1 20 км 10/10 1000 м
[Sc]
+17.1 +16.5 96 +18 +18 1015.9 1001.1
00 20.08 Ю 1 20 км 10/3 1000 м
[Sc Ci fib]
+16.1 +15.9 99 +17 +17 1016.2 1001.3
03 20.08 Ю 2 20 км 10/4 1000 м
[Sc Ac trans Ci fib]
+15.5 +15.3 99 +15 +15 1016.3 1001.4 +15.4
06 20.08 Ю 3 20 км 9/9 360 м
[Frnb]
+18.6 +15.8 84 +20 +20 1016.6 1001.8
09 20.08 Ю 4 20 км 9/6 1000 м
[Sc Ac trans Cs]
+21.8 +17.2 75 +26 +28 душно 1017.0 1002.4

 

Местоположение метеостанции Каргополь (Архангельская область, Россия): широта 61.50 долгота 38.93 высота над уровнем моря 126 м.

В архиве по умолчанию представлена погода в Каргополе за последнюю неделю. Архивные данные за месяц целиком и за предыдущие месяцы, начиная с января 2011 года, Вы можете получить, выбрав интересующий диапазон дат из раскрывающегося списка и нажав кнопку "Ввод!".


*Определитесь, кто Вы:
робот инопланетянин человек

Внимание! Время в таблицах - всемирное. Для получения местного времени необходимо прибавить поправку, которая равна 3 ч.

Смотрите также архив погоды в соседних городах и на ближайших метеорологических станциях:

Погода в Няндоме (Архангельская область, Россия) (69 км)
Погода в Конево (Архангельская область, Россия) (73 км)
Погода в Коноше (Архангельская область, Россия) (92 км)
Погода в Пудоже (Карелия, Россия) (132 км)
Погода в Вожеге (Вологодская область, Россия) (133 км)
Погода в Вытегре (Вологодская область, Россия) (143 км)
Погода в Плесецке (Архангельская область, Россия) (152 км)
Погода в Яршево (Вологодская область, Россия) (173 км)
Погода в Вельске (Архангельская область, Россия) (174 км)
Погода в Белозерске (Вологодская область, Россия) (175 км)

Пояснения к столбцам:

Ветер - указаны скорость ветра в м/с - средняя за 10 мин, порывы в срок и между сроками (в фигурных скобках) и направление, откуда дует ветер: С - северный, СВ - северо-восточный, В - восточный, ЮВ - юго-восточный, Ю - южный, ЮЗ - юго-западный, З - западный, СЗ - северо-западный.
Видимость - горизонтальная дальность видимости в метрах или километрах. При видимости от 1 до 10 км при отсутствии осадков обычно наблюдается дымка, при ухудшении видимости до 1 км и менее - туман. В сухую погоду видимость может ухудшаться дымом, пылью или мглою.
Явления - указаны атмосферные явления, наблюдавшиеся в срок или в последний час перед сроком; фигурными скобками обозначены явления, наблюдавшиеся между сроками (за 1-3 часа до срока); квадратными скобками обозначены град или гололедные отложения с указанием их диаметра в мм.
Облачность - указаны через наклонную черту общая и нижняя облачность в баллах и высота нижней границы облаков в метрах; квадратными скобками обозначены формы облаков: Ci - перистые, Cs - перисто-слоистые, Cc - перисто-кучевые, Ac - высококучевые, As - высокослоистые, Sc - слоисто-кучевые, Ns - слоисто-дождевые, Cu - кучевые, Cb - кучево-дождевые. Подробнее классификацию облаков см. в Атласе облаков (PDF).
T - Температура воздуха - температура, измеренная на высоте 2 м над землей.
Td - Температура точки росы - температура, при понижении до которой содержащийся в воздухе водяной пар достигнет насыщения.
f - Относительная влажность воздуха - влажноcть воздуха, измеренная на высоте 2 м над землей.
Te - Эффективная температура - температура, которую ощущает одетый по сезону человек в тени. Характеристика душности погоды. При расчете учитывается влияние влажности воздуха и скорости ветра на теплоощущения человека.
Tes - Эффективная температура на солнце - температура, которую ощущает человек, с поправкой на солнечный нагрев. Характеристика знойности погоды. Зависит от высоты солнца над горизонтом, облачности и скорости ветра. Ночью, в пасмурную погоду, а также при ветре 12 м/с и более поправка равна нулю.
P - Атмосферное давление - приведенное к уровню моря атмосферное давление.
Po - Атмосферное давление - измеренное на уровне метеостанции атмосферное давление.
Tmin - Минимальная температура - минимум температуры воздуха на высоте 2 м над землей.
Tmax - Максимальная температура - максимум температуры воздуха на высоте 2 м над землей.
R - Количество осадков - Количество выпавших осадков за период времени, мм. При наведении курсора мыши на число - период времени, за который выпало указанное количество осадков.
R24 - Количество осадков - Количество выпавших осадков за 24 часа, мм.
S - Снежный покров - Высота снежного покрова, см. При наведении курсора мыши на число - состояние снежного покрова и степень покрытия местности в баллах.